Location: Columbia
(38.9520°N, 92.3340°W)
Time: 18:37:33
(UTC-05:00)

Meteor 1-4 Rocket - Visible Passes

Search period start: 18 April 2014 00:00
Search period end: 28 April 2014 00:00
Orbit: 472 x 541 km, 81.2° (Epoch: 17 April)

Date Brightness Start Highest point End Pass type
(mag) Time Alt. Az. Time Alt. Az. Time Alt. Az.
22 Apr 4.4 05:46:54 10° SSE 05:50:14 35° E 05:53:33 10° NNE visible
23 Apr 4.9 05:29:09 10° SSE 05:32:13 26° E 05:35:16 10° NE visible
24 Apr 5.3 05:11:31 10° SE 05:14:12 20° E 05:16:53 10° NE visible
25 Apr 5.5 04:54:02 10° SE 04:56:11 15° E 04:58:19 10° NE visible
26 Apr 5.7 04:36:56 10° ESE 04:38:09 11° E 04:39:22 10° ENE visible
